When you browse on this site, cookies collect data to enhance your experience and personalize the content and advertising you see.
Visit our Privacy Policy to learn more. By continuing to use the site, you agree to this use of cookies and data.

Stündliche Wetter Maracay

Heute, 8 Juli, Mittwoch

Zeit Temperatur Niederschläge Wind Luftdruck Luftfeuchtigkeit
00:00 +22°C° 0 mm 1 m/S 711 mmHg 83%
01:00 +22°C° 0 mm 1 m/S 711 mmHg 83%
02:00 +22°C° 0 mm 1 m/S 711 mmHg 84%
03:00 +22°C° 0 mm 1 m/S 710 mmHg 84%
04:00 +22°C° 0 mm 1 m/S 710 mmHg 85%
05:00 +23°C° 0 mm 1 m/S 711 mmHg 84%
06:00 +24°C° 0 mm 1 m/S 711 mmHg 82%
07:00 +25°C° 0 mm 1 m/S 712 mmHg 81%
08:00 +26°C° 0 mm 1 m/S 712 mmHg 76%
09:00 +28°C° 0 mm 1 m/S 712 mmHg 71%
10:00 +29°C° 0 mm 1 m/S 712 mmHg 65%
11:00 +30°C° 0.2 mm 2 m/S 712 mmHg 65%
12:00 +30°C° 0.2 mm 2 m/S 711 mmHg 64%
13:00 +31°C° 0.2 mm 2 m/S 711 mmHg 63%
14:00 +30°C° 0.6 mm 2 m/S 710 mmHg 67%
15:00 +30°C° 0.6 mm 1 m/S 710 mmHg 71%
16:00 +29°C° 0.6 mm 1 m/S 709 mmHg 74%
17:00 +28°C° 0.2 mm 1 m/S 710 mmHg 79%
18:00 +26°C° 0.2 mm 1 m/S 710 mmHg 83%
19:00 +25°C° 0.2 mm 1 m/S 710 mmHg 88%
20:00 +25°C° 0 mm 1 m/S 711 mmHg 88%
21:00 +24°C° 0 mm 1 m/S 711 mmHg 89%
22:00 +24°C° 0 mm 1 m/S 711 mmHg 89%
23:00 +24°C° 0 mm 1 m/S 711 mmHg 90%

Morgen, 9 Juli, Donnerstag

Zeit Temperatur Niederschläge Wind Luftdruck Luftfeuchtigkeit
00:00 +23°C° 0 mm 1 m/S 711 mmHg 90%
01:00 +23°C° 0 mm 1 m/S 710 mmHg 90%
02:00 +23°C° 0 mm 1 m/S 710 mmHg 90%
03:00 +23°C° 0 mm 1 m/S 710 mmHg 89%
04:00 +22°C° 0 mm 1 m/S 710 mmHg 89%
05:00 +23°C° 0 mm 1 m/S 711 mmHg 87%
06:00 +24°C° 0 mm 1 m/S 711 mmHg 86%
07:00 +23°C° 0 mm 0 m/S 712 mmHg 84%
08:00 +27°C° 0 mm 1 m/S 712 mmHg 77%
09:00 +28°C° 0 mm 1 m/S 713 mmHg 70%
10:00 +30°C° 0 mm 2 m/S 713 mmHg 63%
11:00 +30°C° 0.1 mm 2 m/S 713 mmHg 61%
12:00 +31°C° 0.1 mm 2 m/S 712 mmHg 59%
13:00 +31°C° 0.1 mm 2 m/S 711 mmHg 56%
14:00 +31°C° 0.1 mm 2 m/S 711 mmHg 59%
15:00 +30°C° 0.1 mm 2 m/S 710 mmHg 62%
16:00 +30°C° 0.1 mm 2 m/S 710 mmHg 64%
17:00 +28°C° 0 mm 2 m/S 710 mmHg 72%
18:00 +26°C° 0 mm 2 m/S 710 mmHg 80%
19:00 +24°C° 0 mm 1 m/S 711 mmHg 87%
20:00 +24°C° 0 mm 1 m/S 711 mmHg 88%
21:00 +23°C° 0 mm 1 m/S 711 mmHg 89%
22:00 +23°C° 0 mm 1 m/S 712 mmHg 90%
23:00 +23°C° 0 mm 1 m/S 711 mmHg 90%

übermorgen, 10 Juli, Freitag

Zeit Temperatur Niederschläge Wind Luftdruck Luftfeuchtigkeit
00:00 +22°C° 0 mm 1 m/S 711 mmHg 89%
01:00 +22°C° 0 mm 1 m/S 711 mmHg 89%
02:00 +22°C° 0 mm 1 m/S 711 mmHg 89%
03:00 +22°C° 0 mm 1 m/S 711 mmHg 88%
04:00 +22°C° 0 mm 1 m/S 711 mmHg 88%
05:00 +23°C° 0 mm 1 m/S 712 mmHg 85%
06:00 +24°C° 0 mm 1 m/S 712 mmHg 82%
07:00 +23°C° 0 mm 0 m/S 713 mmHg 79%
08:00 +26°C° 0 mm 1 m/S 713 mmHg 74%
09:00 +28°C° 0 mm 1 m/S 713 mmHg 69%
10:00 +29°C° 0 mm 2 m/S 713 mmHg 64%
11:00 +30°C° 0.3 mm 2 m/S 713 mmHg 63%
12:00 +30°C° 0.3 mm 1 m/S 712 mmHg 62%
13:00 +31°C° 0.3 mm 1 m/S 712 mmHg 61%
14:00 +30°C° 0.4 mm 1 m/S 711 mmHg 65%
15:00 +29°C° 0.4 mm 1 m/S 711 mmHg 69%
16:00 +28°C° 0.4 mm 2 m/S 710 mmHg 73%
17:00 +27°C° 0.1 mm 1 m/S 710 mmHg 78%
18:00 +26°C° 0.1 mm 1 m/S 711 mmHg 84%
19:00 +24°C° 0.1 mm 1 m/S 711 mmHg 89%
20:00 +24°C° 0.1 mm 1 m/S 711 mmHg 90%
21:00 +24°C° 0.1 mm 1 m/S 712 mmHg 91%
22:00 +23°C° 0.1 mm 1 m/S 712 mmHg 92%
23:00 +23°C° 0.1 mm 1 m/S 712 mmHg 92%

11 Juli, Samstag

Zeit Temperatur Niederschläge Wind Luftdruck Luftfeuchtigkeit
00:00 +23°C° 0.1 mm 1 m/S 711 mmHg 92%
01:00 +23°C° 0.1 mm 1 m/S 711 mmHg 92%
02:00 +23°C° 0.1 mm 1 m/S 711 mmHg 91%
03:00 +23°C° 0.1 mm 1 m/S 711 mmHg 90%
04:00 +23°C° 0.1 mm 1 m/S 710 mmHg 90%
05:00 +23°C° 0 mm 1 m/S 711 mmHg 87%
06:00 +24°C° 0 mm 1 m/S 711 mmHg 84%
07:00 +25°C° 0 mm 1 m/S 712 mmHg 81%
08:00 +26°C° 0.3 mm 1 m/S 712 mmHg 77%
09:00 +27°C° 0.3 mm 1 m/S 712 mmHg 74%
10:00 +29°C° 0.3 mm 2 m/S 712 mmHg 70%
11:00 +28°C° 1.3 mm 2 m/S 712 mmHg 72%
12:00 +28°C° 1.3 mm 1 m/S 712 mmHg 75%
13:00 +28°C° 1.3 mm 1 m/S 711 mmHg 77%
14:00 +28°C° 1.3 mm 1 m/S 711 mmHg 78%
15:00 +28°C° 1.3 mm 1 m/S 710 mmHg 79%
16:00 +27°C° 1.3 mm 1 m/S 710 mmHg 80%
17:00 +26°C° 1 mm 1 m/S 710 mmHg 83%
18:00 +25°C° 1 mm 1 m/S 710 mmHg 86%
19:00 +24°C° 1 mm 1 m/S 711 mmHg 90%
20:00 +24°C° 0.4 mm 1 m/S 711 mmHg 89%
21:00 +23°C° 0.4 mm 1 m/S 711 mmHg 89%
22:00 +23°C° 0.4 mm 1 m/S 712 mmHg 89%
23:00 +23°C° 0.3 mm 1 m/S 711 mmHg 90%

12 Juli, Sonntag

Zeit Temperatur Niederschläge Wind Luftdruck Luftfeuchtigkeit
00:00 +23°C° 0.3 mm 1 m/S 711 mmHg 90%
01:00 +23°C° 0.3 mm 1 m/S 710 mmHg 90%
02:00 +23°C° 0.5 mm 1 m/S 710 mmHg 91%
03:00 +23°C° 0.5 mm 1 m/S 710 mmHg 91%
04:00 +23°C° 0.5 mm 1 m/S 710 mmHg 92%
05:00 +23°C° 0.5 mm 1 m/S 711 mmHg 92%
06:00 +23°C° 0.5 mm 1 m/S 711 mmHg 92%
07:00 +23°C° 0.5 mm 1 m/S 712 mmHg 92%
08:00 +24°C° 0.4 mm 2 m/S 712 mmHg 92%
09:00 +24°C° 0.4 mm 2 m/S 712 mmHg 91%
10:00 +24°C° 0.4 mm 2 m/S 712 mmHg 90%
11:00 +25°C° 0.1 mm 2 m/S 712 mmHg 86%
12:00 +26°C° 0.1 mm 2 m/S 712 mmHg 82%
13:00 +27°C° 0.1 mm 1 m/S 711 mmHg 78%
14:00 +27°C° 0.2 mm 1 m/S 711 mmHg 78%
15:00 +27°C° 0.2 mm 1 m/S 710 mmHg 79%
16:00 +27°C° 0.2 mm 1 m/S 710 mmHg 79%
17:00 +26°C° 0.2 mm 1 m/S 710 mmHg 82%
18:00 +25°C° 0.2 mm 1 m/S 711 mmHg 85%
19:00 +24°C° 0.2 mm 1 m/S 711 mmHg 88%
20:00 +24°C° 0 mm 1 m/S 711 mmHg 89%
21:00 +24°C° 0 mm 1 m/S 712 mmHg 89%
22:00 +23°C° 0 mm 1 m/S 712 mmHg 89%
23:00 +23°C° 0 mm 1 m/S 712 mmHg 90%

13 Juli, Montag

Zeit Temperatur Niederschläge Wind Luftdruck Luftfeuchtigkeit
00:00 +23°C° 0 mm 1 m/S 712 mmHg 90%
01:00 +23°C° 0 mm 1 m/S 711 mmHg 90%
02:00 +22°C° 0 mm 1 m/S 711 mmHg 90%
03:00 +22°C° 0 mm 1 m/S 711 mmHg 90%
04:00 +22°C° 0 mm 1 m/S 711 mmHg 90%
05:00 +21°C° 0 mm 0 m/S 712 mmHg 88%
06:00 +22°C° 0 mm 0 m/S 712 mmHg 86%
07:00 +23°C° 0 mm 0 m/S 713 mmHg 84%
08:00 +26°C° 0 mm 1 m/S 713 mmHg 78%
09:00 +28°C° 0 mm 1 m/S 713 mmHg 71%
10:00 +29°C° 0 mm 2 m/S 714 mmHg 65%
11:00 +30°C° 0.3 mm 1 m/S 713 mmHg 65%
12:00 +30°C° 0.3 mm 1 m/S 713 mmHg 65%
13:00 +30°C° 0.3 mm 1 m/S 712 mmHg 64%
14:00 +30°C° 0.6 mm 1 m/S 712 mmHg 69%
15:00 +29°C° 0.6 mm 1 m/S 711 mmHg 73%
16:00 +29°C° 0.6 mm 1 m/S 711 mmHg 77%
17:00 +27°C° 0.2 mm 1 m/S 711 mmHg 81%
18:00 +26°C° 0.2 mm 1 m/S 711 mmHg 86%
19:00 +24°C° 0.2 mm 1 m/S 712 mmHg 90%
20:00 +24°C° 0.2 mm 1 m/S 712 mmHg 90%
21:00 +24°C° 0.2 mm 1 m/S 712 mmHg 90%
22:00 +23°C° 0.2 mm 1 m/S 712 mmHg 90%
23:00 +23°C° 0 mm 1 m/S 712 mmHg 90%
Mehr zeigen